CAPE
942 1043 1088 1258 1474 1644 1727 1750 1631 1364 1409 1814 1964 1773 1585 1529 1619 1674 1596 1539 1528 1447 1237 1092 996 866 862 797 473 358 246 349
897 952 918 907 1039 1274 1440 1605 1426 1153 1159 1380 1829 1631 1467 1294 1331 1412 1423 1305 1325 1278 1020 921 724 740 657 548 425 238 77 207
1190 1040 959 880 792 899 1141 1248 1359 1346 1304 1552 1649 1518 1376 1213 1009 1013 1050 1009 1003 853 738 540 478 305 211 160 113 95 44 178
1618 1237 1135 1101 1052 820 777 923 1100 1159 1327 1423 1437 1295 1254 975 774 641 577 550 745 654 519 352 158 48 52 80 81 48 67 166
2145 1753 1472 1405 1373 1069 764 756 785 905 1146 1161 1218 1211 1091 835 577 444 256 152 444 548 400 303 104 37 53 66 19 64 69 93
2367 2077 1814 1762 1424 1360 1023 979 839 845 797 1094 1036 1133 1094 896 719 506 329 272 333 379 247 189 90 16 44 40 30 66 47 61
2196 2135 2006 1989 1716 1611 1442 1288 1089 1154 1031 988 1132 1044 862 858 929 673 455 351 309 267 116 93 74 14 0 11 34 31 40 44
1983 1969 2070 1889 1708 1779 1666 1630 1669 1585 1395 1327 1089 875 707 661 713 733 652 544 362 278 174 58 25 1 0 6 17 52 42 41
1731 1826 2083 1923 1699 1820 1756 1340 1631 1624 1350 1220 1034 960 888 755 679 593 590 563 488 198 75 40 23 8 0 24 24 57 41 38
1510 1711 1918 2083 1752 1897 1813 1608 1188 1094 793 843 800 974 831 695 651 563 520 524 379 219 139 94 68 31 2 39 32 82 53 36
1439 1663 1906 2007 1913 1615 1562 1462 1206 894 735 720 573 784 939 717 526 532 514 437 340 240 205 102 102 23 39 45 9 58 48 32
1390 1581 1987 1981 1974 1683 1586 1490 1252 1108 663 542 434 442 733 677 548 487 369 321 215 151 79 84 82 32 68 39 12 48 27 36
1533 1581 1976 2013 1966 1649 1612 1312 1310 1102 812 541 302 400 587 610 594 413 357 313 260 443 157 98 108 41 50 75 23 44 5 5
1659 1747 1885 1905 1923 1614 1477 1382 1205 1080 771 556 385 391 501 725 695 482 358 208 181 45 305 175 39 16 48 86 25 10 23 25
1443 1875 2005 1868 1761 1731 1433 1438 1302 1045 874 635 467 404 384 478 638 416 199 184 45 20 162 64 25 30 47 34 9 0 8 19
448 2011 2040 1917 1754 1710 1475 1421 1275 1190 990 724 464 418 409 725 664 359 187 46 5 88 5 2 7 14 39 3 17 1 0 0
3 395 1929 1783 1771 1598 1515 1248 1091 1225 1181 1012 637 209 457 417 394 275 64 21 0 0 2 2 7 11 25 0 6 0 0 0
22 3 35 1401 1603 1523 1297 1150 1016 1028 1116 1092 722 256 241 335 304 187 23 15 0 0 0 1 5 11 10 28 26 2 0 25
31 14 0 18 1388 1391 1226 928 993 1093 1100 1063 563 306 219 265 284 106 119 17 0 0 0 3 1 18 13 5 11 9 12 8
17 74 14 0 729 1333 1137 1022 866 1206 1064 907 507 315 316 155 219 126 46 4 1 0 0 9 10 0 2 3 6 8 26 0
CIN
-449 -381 -320 -277 -181 -115 -86 -61 -66 -81 -59 -28 -5 -13 -30 -34 -25 -28 -25 -30 -30 -33 -32 -37 -39 -37 -33 -31 -19 -27 -23 -28
-436 -398 -352 -363 -278 -183 -130 -77 -78 -105 -82 -41 -9 -15 -25 -31 -32 -25 -31 -31 -42 -37 -42 -44 -57 -61 -61 -70 -43 -39 -25 -44
-319 -353 -343 -372 -366 -270 -185 -122 -93 -59 -55 -30 -11 -14 -21 -32 -39 -38 -35 -37 -40 -56 -51 -63 -65 -91 -94 -51 -35 -37 -46 -80
-208 -289 -311 -316 -317 -303 -258 -184 -120 -92 -49 -31 -27 -23 -20 -37 -41 -38 -39 -43 -38 -46 -50 -66 -63 -157 -163 -129 -66 -82 -39 -40
-133 -176 -243 -254 -246 -254 -275 -219 -174 -130 -78 -60 -40 -17 -14 -27 -30 -40 -62 -25 -52 -26 -30 -38 -58 -161 -144 -133 -110 -88 -36 -32
-116 -131 -153 -185 -216 -217 -225 -192 -184 -154 -138 -64 -56 -18 -4 -13 -20 -30 -36 -10 -54 -43 -49 -43 -33 -84 -111 -144 -1 -56 -24 -20
-126 -123 -129 -146 -159 -202 -179 -168 -165 -131 -120 -89 -34 -28 -21 -12 -2 -33 -26 -12 -42 -46 -41 -13 -11 -9 0 -10 -1 -65 -20 -20
-106 -136 -148 -144 -136 -178 -139 -135 -94 -72 -70 -57 -50 -58 -55 -50 -16 -8 -17 -21 -17 -17 -19 -14 -33 -5 0 -17 -41 -12 -8 -11
-98 -112 -150 -137 -177 -150 -134 -102 -89 -59 -83 -72 -83 -57 -39 -39 -30 -18 -17 -5 -9 -6 -26 -35 -42 -19 0 -0 -19 -20 -4 -4
-99 -139 -153 -126 -138 -139 -135 -108 -152 -125 -126 -104 -120 -83 -53 -44 -38 -24 -16 -12 -18 -18 -14 -9 -10 -11 -5 -2 -16 -7 -0 -0
-96 -156 -163 -156 -127 -147 -136 -121 -132 -162 -187 -158 -161 -105 -46 -40 -49 -29 -7 -3 -3 -2 0 -1 -8 -33 -23 -20 -43 -5 0 -2
-138 -143 -159 -145 -124 -116 -103 -87 -139 -138 -185 -210 -213 -168 -72 -51 -40 -19 -21 -6 -4 -3 -5 0 -2 -12 -7 -17 -21 -21 0 -1
-152 -141 -126 -106 -103 -96 -114 -120 -127 -155 -198 -179 -272 -191 -115 -76 -45 -26 -29 -22 -11 0 -0 0 -0 -4 0 0 0 0 0 -1
-156 -146 -164 -127 -121 -117 -123 -132 -90 -116 -155 -167 -230 -222 -148 -77 -52 -38 -41 -54 -27 -30 0 0 -13 -4 -7 0 0 0 0 -0
-172 -145 -148 -115 -116 -91 -64 -56 -43 -50 -128 -161 -241 -218 -196 -146 -80 -61 -92 -63 -78 -79 -3 -1 -15 -27 -14 -0 0 0 0 -0
-164 -149 -128 -95 -103 -108 -86 -89 -110 -110 -116 -125 -161 -184 -174 -108 -96 -94 -86 -146 -91 -44 -3 0 0 -2 -2 0 0 -0 0 0
-222 -96 -46 -93 -91 -105 -126 -89 -89 -98 -82 -62 -96 -193 -133 -153 -165 -146 -157 -174 0 0 0 0 0 0 -4 0 0 0 0 0
-223 -142 -49 -29 -52 -90 -110 -110 -95 -97 -83 -86 -120 -208 -174 -162 -187 -187 -223 -212 0 0 0 0 0 0 -1 -0 0 0 0 0
-151 -122 0 -36 -39 -55 -93 -81 -112 -98 -74 -91 -135 -221 -233 -213 -209 -234 -172 -197 0 0 0 -3 -0 -14 0 0 0 0 0 0
-105 -127 -162 0 -80 -25 -57 -69 -91 -62 -70 -85 -134 -192 -211 -235 -217 -213 -225 -26 0 0 0 -1 -0 0 -1 0 0 0 -2 0
Wind_Speed
31 25 24 29 28 26 26 24 25 25 27 29 27 24 23 26 26 25 25 27 27 30 30 29 26 26 20 27 37 30 31 28
33 28 23 25 24 27 27 26 25 24 25 26 28 25 25 26 25 25 26 26 29 26 28 27 27 24 19 30 36 30 nan 27
33 32 27 26 26 24 27 28 26 26 24 26 26 22 23 24 26 26 26 27 30 31 29 28 28 25 24 24 32 nan nan 26
34 33 31 28 28 26 25 25 23 23 23 23 23 24 23 26 26 28 27 28 31 33 31 31 28 nan nan nan nan nan nan 24
34 35 33 31 32 28 24 24 23 22 25 25 23 24 24 24 26 26 23 26 25 27 27 26 26 nan nan nan nan nan nan nan
38 35 33 32 35 31 28 26 24 24 25 28 25 23 25 25 26 26 24 24 26 21 21 25 nan nan nan nan nan nan nan nan
38 39 35 34 37 33 30 28 27 25 27 30 28 25 24 26 25 26 26 25 25 23 23 nan nan nan nan nan nan nan nan nan
34 37 38 37 36 36 31 31 31 28 27 31 32 28 26 26 25 24 24 25 26 25 26 nan nan nan nan nan nan nan nan nan
35 32 33 39 38 38 35 32 33 32 29 32 36 32 30 29 27 25 24 25 29 30 nan nan nan nan nan nan nan nan nan nan
37 37 36 33 38 39 37 36 34 35 30 31 37 37 35 32 29 28 28 28 28 30 30 nan nan nan nan nan nan nan nan nan
41 42 42 37 31 42 41 39 35 36 35 31 34 38 37 35 32 31 32 30 30 29 29 30 28 nan nan nan nan nan nan nan
44 44 40 41 33 37 40 39 35 35 38 33 35 35 36 34 34 31 31 33 32 29 nan nan nan nan nan nan nan nan nan nan
43 44 39 40 33 34 42 40 37 35 38 35 36 36 36 35 34 31 30 32 32 30 32 nan 29 nan nan nan nan nan nan nan
43 40 42 40 33 32 42 43 42 38 38 37 36 37 34 33 34 32 31 31 34 nan 33 31 nan nan nan nan nan nan nan nan
41 41 41 43 41 34 41 46 45 40 35 40 38 36 32 32 33 33 32 31 nan nan 31 nan nan nan nan nan nan nan nan nan
41 46 49 47 45 36 40 43 41 36 38 42 39 35 30 31 33 33 31 nan nan nan nan nan nan nan nan nan nan nan nan nan
nan 39 38 44 43 41 38 44 40 40 39 41 39 35 28 30 33 35 nan nan nan nan nan nan nan nan nan nan nan nan nan nan
nan nan nan 43 44 41 35 41 43 40 38 36 35 33 26 28 33 34 nan nan nan nan nan nan nan nan nan nan nan nan nan nan
nan nan nan nan 40 38 31 36 42 42 40 35 35 31 23 25 32 34 29 nan nan nan nan nan nan nan nan nan nan nan nan nan
nan nan nan nan 34 34 29 36 40 40 39 37 35 27 23 26 29 32 nan nan nan nan nan nan nan nan nan nan nan nan nan nan
Wind_Direction
280 282 294 298 301 305 306 314 318 328 334 333 329 323 318 317 317 315 307 301 296 293 295 302 309 309 260 242 249 240 237 236
280 282 284 288 296 306 305 308 314 321 331 329 324 320 318 315 316 313 309 305 296 298 299 303 301 291 292 268 271 253 nan 247
280 284 285 288 292 301 306 309 312 315 319 320 315 311 310 312 310 311 308 305 298 299 302 302 296 293 281 273 276 nan nan 238
282 285 287 290 289 295 301 299 295 301 309 314 311 313 308 309 307 309 305 302 298 302 303 298 291 nan nan nan nan nan nan 248
282 286 288 290 288 291 295 295 293 296 308 312 313 313 311 306 304 301 296 299 289 293 290 282 285 nan nan nan nan nan nan nan
288 285 289 289 283 290 298 300 297 296 302 309 310 308 311 309 303 303 296 290 292 293 287 285 nan nan nan nan nan nan nan nan
295 288 289 287 287 289 294 300 299 301 300 304 305 309 308 306 306 307 298 294 294 294 291 nan nan nan nan nan nan nan nan nan
291 296 293 291 287 292 294 293 299 293 293 298 301 304 307 307 306 305 296 294 293 294 294 nan nan nan nan nan nan nan nan nan
290 287 289 297 296 293 290 290 293 293 289 297 303 304 307 308 305 303 295 291 295 292 nan nan nan nan nan nan nan nan nan nan
295 284 288 292 295 287 287 289 289 292 293 291 300 306 307 306 304 302 299 293 295 300 295 nan nan nan nan nan nan nan nan nan
291 286 291 289 285 282 284 286 289 289 291 293 299 302 306 309 308 303 304 299 298 300 298 299 294 nan nan nan nan nan nan nan
285 282 291 287 280 277 280 279 283 287 288 294 300 300 302 303 305 303 300 300 303 297 nan nan nan nan nan nan nan nan nan nan
281 285 284 276 283 283 282 281 280 282 284 295 300 298 302 301 303 304 301 304 308 302 297 nan 293 nan nan nan nan nan nan nan
279 283 283 287 283 279 272 271 269 274 280 290 297 297 301 300 304 301 299 298 304 nan 299 296 nan nan nan nan nan nan nan nan
275 280 286 288 287 271 267 267 267 273 276 278 283 296 296 300 302 298 298 298 nan nan 300 nan nan nan nan nan nan nan nan nan
246 283 286 283 283 284 285 279 277 273 271 271 277 285 291 298 301 296 295 nan nan nan nan nan nan nan nan nan nan nan nan nan
nan 251 279 283 287 290 280 274 272 267 266 273 279 284 286 294 298 295 nan nan nan nan nan nan nan nan nan nan nan nan nan nan
nan nan nan 285 288 290 288 281 274 270 269 272 274 278 281 289 295 295 nan nan nan nan nan nan nan nan nan nan nan nan nan nan
nan nan nan nan 290 291 286 281 277 273 270 267 271 271 279 287 294 291 287 nan nan nan nan nan nan nan nan nan nan nan nan nan
nan nan nan nan 282 287 291 280 269 266 270 266 264 268 264 275 287 287 nan nan nan nan nan nan nan nan nan nan nan nan nan nan